(161276) = 2003 FD107

Discovered at Socorro on 2003-03-30 by LINEAR.

Orbit

Orbit type: Main Belt

Note: WebGL enabled browser required.

epoch2024-03-31.0
epoch JD2460400.5
perihelion date2024-03-27.89850
perihelion JD2460397.39851
argument of perihelion (°)333.92973
ascending node (°)190.88820
inclination (°)15.28790
eccentricity0.1913007
perihelion distance (AU)2.1220231
Tisserand w.r.t. Jupiter3.3
ΔV w.r.t. Earth (km/sec)10.3
semimajor axis (AU)2.6239951
mean anomaly (°)0.71917
mean daily motion (°/day)0.23187800
aphelion distance (AU)3.126
period (years)4.25
P-vector [x]-0.96216093
P-vector [y]0.27235793
P-vector [z]-0.00821580
Q-vector [x]-0.26789133
Q-vector [y]-0.95103263
Q-vector [z]-0.15417904
absolute magnitude15.78
phase slope0.15
uncertainty0
referenceE2024-GI3
observations used934
oppositions16
arc length (days)9097
first opposition used1999
last opposition used2024
residual rms (arc-secs)0.69
perturbers coarse indicatorM-v
perturbers precise indicator003Ek
first observation date used1999-05-17.0
last observation date used2024-04-12.0
computer nameMPCLINUX
JD of orbit computation2456581.530219
perihelion JD uncertainty (days)8.5390E-05
argument of perihelion uncertainty (°)2.2942E-05
ascending node uncertainty (°)1.5002E-05
inclination uncertainty (°)8.9069E-06
eccentricity uncertainty 6.8313E-08
perihelion distance uncertainty (AU)1.9108E-07
Minimum Orbit Intersection Distances (in AU)
for orbit epoch: 2460400.5, reference: E2024-GI3
Mercury1.74259
Venus1.41636
Earth1.13745
Mars0.50261
Jupiter1.87829
Saturn6.33981
Uranus16.3311
Neptune26.789

Observations

932 total observations over interval: 1999 05 17.39394 – 2024 03 19.369283
These data are available for download (format description).

Date (UT) J2000 RA J2000 Dec Magn Location Ref
1999 05 17.39394 16 29 52.48 -01 45 13.9 19.5   704 – Lincoln Laboratory ETS, New Mexico MPS 213093
1999 05 17.40605 16 29 51.73 -01 45 07.0 19.5   704 – Lincoln Laboratory ETS, New Mexico MPS 213093
1999 05 17.41826 16 29 50.98 -01 45 02.4 19.5   704 – Lincoln Laboratory ETS, New Mexico MPS 213093
1999 05 17.43038 16 29 50.34 -01 44 53.2 19.5   704 – Lincoln Laboratory ETS, New Mexico MPS 213093
2003 03 07.38079 14 04 30.62 -11 33 31.1 19.6 V 291 – LPL/Spacewatch II MPS 78410
2003 03 07.40469 14 04 30.71 -11 33 18.6 19.6 V 291 – LPL/Spacewatch II MPS 78410
2003 03 07.42830 14 04 30.80 -11 33 06.6 19.7 V 291 – LPL/Spacewatch II MPS 78410
2003 03 30.35153 13 59 13.12 -07 16 03.0 18.7   704 – Lincoln Laboratory ETS, New Mexico MPS 76438
2003 03 30.36402 13 59 12.77 -07 15 52.6 19.1   704 – Lincoln Laboratory ETS, New Mexico MPS 76438
2003 03 30.37623 13 59 12.28 -07 15 42.8 19.1   704 – Lincoln Laboratory ETS, New Mexico MPS 76438
2003 03 30.38832 13 59 11.94 -07 15 33.3 18.9   704 – Lincoln Laboratory ETS, New Mexico MPS 76438
2003 03 30.40040 13 59 11.47 -07 15 23.5 19.0   704 – Lincoln Laboratory ETS, New Mexico MPS 76438
2003 04 02.35574 13 57 33.16 -06 35 45.6 18.6   704 – Lincoln Laboratory ETS, New Mexico MPS 76438
2003 04 02.36787 13 57 32.70 -06 35 35.5 19.2   704 – Lincoln Laboratory ETS, New Mexico MPS 76438
2003 04 02.38001 13 57 32.24 -06 35 26.1 18.8   704 – Lincoln Laboratory ETS, New Mexico MPS 76438
2003 04 02.39214 13 57 31.77 -06 35 15.3 18.7   704 – Lincoln Laboratory ETS, New Mexico MPS 76438
2003 04 02.40425 13 57 31.35 -06 35 06.0 19.0   704 – Lincoln Laboratory ETS, New Mexico MPS 76438
2003 04 04.37341 13 56 20.62 -06 08 19.2 18.2 R 699 – Lowell Observatory-LONEOS MPS 78410
2003 04 04.38758 13 56 20.05 -06 08 07.7   699 – Lowell Observatory-LONEOS MPS 78410
2003 04 04.39818 13 56 19.68 -06 07 58.4 18.6 V 691 – Steward Observatory, Kitt Peak-Spacewatch MPS 76438
2003 04 04.40171 13 56 19.54 -06 07 56.2   699 – Lowell Observatory-LONEOS MPS 78410
2003 04 04.41586 13 56 18.98 -06 07 43.8   699 – Lowell Observatory-LONEOS MPS 78410
2003 04 04.42717 13 56 18.53 -06 07 34.7 18.6 V 691 – Steward Observatory, Kitt Peak-Spacewatch MPS 76438
2003 04 04.45698 13 56 17.36 -06 07 10.3 18.8 V 691 – Steward Observatory, Kitt Peak-Spacewatch MPS 76438
2003 04 08.31018 13 53 49.22 -05 14 17.3 18.3   704 – Lincoln Laboratory ETS, New Mexico MPS 76438
2003 04 08.31054 13 53 49.22 -05 14 16.9 18.5   704 – Lincoln Laboratory ETS, New Mexico MPS 76438
2003 04 08.32192 13 53 48.69 -05 14 07.7 18.8   704 – Lincoln Laboratory ETS, New Mexico MPS 76438
2003 04 08.32254 13 53 48.69 -05 14 07.4 18.8   704 – Lincoln Laboratory ETS, New Mexico MPS 76438
2003 04 08.33400 13 53 48.16 -05 13 58.0 18.8   704 – Lincoln Laboratory ETS, New Mexico MPS 76438
2003 04 08.33436 13 53 48.17 -05 13 57.9 18.6   704 – Lincoln Laboratory ETS, New Mexico MPS 76438
2003 04 08.34637 13 53 47.61 -05 13 47.9 19.0   704 – Lincoln Laboratory ETS, New Mexico MPS 76438
2003 04 08.34673 13 53 47.62 -05 13 47.6 18.8   704 – Lincoln Laboratory ETS, New Mexico MPS 76438
2003 04 08.35811 13 53 47.19 -05 13 38.1 18.4   704 – Lincoln Laboratory ETS, New Mexico MPS 76438
2003 04 08.35847 13 53 47.19 -05 13 38.1 18.3   704 – Lincoln Laboratory ETS, New Mexico MPS 76438
2003 04 11.28065 13 51 48.32 -04 33 31.8 18.3   644 – Palomar Mountain/NEAT MPS 76438
2003 04 11.35131 13 51 45.22 -04 32 33.8 17.9   644 – Palomar Mountain/NEAT MPS 76438
2003 04 11.41448 13 51 42.44 -04 31 42.0 17.9   644 – Palomar Mountain/NEAT MPS 76438
2003 04 25.29516 13 41 59.16 -01 32 04.4 18.0 R 699 – Lowell Observatory-LONEOS MPS 78410
2003 04 25.30959 13 41 58.58 -01 31 54.4   699 – Lowell Observatory-LONEOS MPS 78410
2003 04 25.32405 13 41 57.92 -01 31 44.9   699 – Lowell Observatory-LONEOS MPS 78410
2003 04 25.33851 13 41 57.34 -01 31 34.0   699 – Lowell Observatory-LONEOS MPS 78410
2003 04 25.35824 13 41 56.50 -01 31 19.8 18.8 V 291 – LPL/Spacewatch II MPS 78410
2003 04 25.38146 13 41 55.52 -01 31 03.3 18.7 V 291 – LPL/Spacewatch II MPS 78410
2003 04 25.40640 13 41 54.46 -01 30 45.6 18.7 V 291 – LPL/Spacewatch II MPS 78410
2003 04 25.43006 13 41 53.45 -01 30 28.5 19.1 V 291 – LPL/Spacewatch II MPS 78410
2003 04 25.43462 13 41 53.26 -01 30 25.4 19.1 V 291 – LPL/Spacewatch II MPS 78410
2003 04 25.44085 13 41 52.99 -01 30 20.9 18.9 V 291 – LPL/Spacewatch II MPS 78410
2003 04 27.25548 13 40 41.38 -01 09 19.2 18.4   704 – Lincoln Laboratory ETS, New Mexico MPS 78410
2003 04 27.29130 13 40 39.88 -01 08 53.2 18.8   704 – Lincoln Laboratory ETS, New Mexico MPS 78410
2003 04 27.30334 13 40 39.38 -01 08 45.5 18.6   704 – Lincoln Laboratory ETS, New Mexico MPS 78410
2003 04 30.30197 13 38 45.92 -00 35 38.4 19.5   608 – Haleakala-AMOS MPS 78410
2003 04 30.31271 13 38 45.50 -00 35 31.3 19.4   608 – Haleakala-AMOS MPS 78410
2003 04 30.32401 13 38 45.06 -00 35 24.1 19.3   608 – Haleakala-AMOS MPS 78410
2003 05 02.26183 13 37 35.48 -00 15 15.3 18.0   704 – Lincoln Laboratory ETS, New Mexico MPS 78410
2003 05 02.27356 13 37 35.06 -00 15 07.9 18.7   704 – Lincoln Laboratory ETS, New Mexico MPS 78410
2003 05 02.28533 13 37 34.59 -00 15 01.2 19.1   704 – Lincoln Laboratory ETS, New Mexico MPS 78410
2003 05 02.29705 13 37 34.14 -00 14 53.7 18.8   704 – Lincoln Laboratory ETS, New Mexico MPS 78410
2003 05 02.30886 13 37 33.72 -00 14 46.2 18.6   704 – Lincoln Laboratory ETS, New Mexico MPS 78410
2003 05 05.20122 13 35 57.49 +00 13 24.0 18.3   704 – Lincoln Laboratory ETS, New Mexico MPS 78410
2003 05 05.21317 13 35 57.02 +00 13 30.0 18.6   704 – Lincoln Laboratory ETS, New Mexico MPS 78410
2003 05 05.22511 13 35 56.64 +00 13 37.4 18.7   704 – Lincoln Laboratory ETS, New Mexico MPS 78410
2003 05 05.23715 13 35 56.27 +00 13 43.9 18.3   704 – Lincoln Laboratory ETS, New Mexico MPS 78410
2003 05 05.24930 13 35 55.83 +00 13 50.5 18.5   704 – Lincoln Laboratory ETS, New Mexico MPS 78410
2003 05 05.26242 13 35 55.40 +00 13 58.0 18.7   704 – Lincoln Laboratory ETS, New Mexico MPS 78410
2003 05 05.27447 13 35 55.00 +00 14 05.1 19.2   704 – Lincoln Laboratory ETS, New Mexico MPS 78410
2003 05 05.28642 13 35 54.55 +00 14 11.7 18.9   704 – Lincoln Laboratory ETS, New Mexico MPS 78410
2003 05 05.29850 13 35 54.19 +00 14 18.2 18.7   704 – Lincoln Laboratory ETS, New Mexico MPS 78410
2003 05 05.31040 13 35 53.76 +00 14 25.5 18.7   704 – Lincoln Laboratory ETS, New Mexico MPS 78410
2003 05 06.21465 13 35 25.92 +00 22 42.2 18.4   704 – Lincoln Laboratory ETS, New Mexico MPS 80211
2003 05 06.23887 13 35 25.05 +00 22 55.2 18.8   704 – Lincoln Laboratory ETS, New Mexico MPS 80211
2003 05 06.25115 13 35 24.65 +00 23 02.6 18.6   704 – Lincoln Laboratory ETS, New Mexico MPS 80211
2005 09 23.41823 02 14 21.00 +08 34 08.5 20.9 V 691 – Steward Observatory, Kitt Peak-Spacewatch MPS 142646
2005 09 23.43902 02 14 20.40 +08 33 59.1 20.3 V 691 – Steward Observatory, Kitt Peak-Spacewatch MPS 142646
2005 09 23.45644 02 14 19.91 +08 33 51.1 20.5 V 691 – Steward Observatory, Kitt Peak-Spacewatch MPS 142646
2005 09 24.39374 02 13 54.12 +08 26 37.2 20.9 V 291 – LPL/Spacewatch II MPS 142646
2005 09 24.39974 02 13 53.97 +08 26 34.1 21.2 V 291 – LPL/Spacewatch II MPS 142646
2005 09 24.40534 02 13 53.76 +08 26 31.9 21.0 V 291 – LPL/Spacewatch II MPS 142646
2005 10 01.37335 02 10 08.68 +07 29 35.8 20.7 V 703 – Catalina Sky Survey MPS 143922
2005 10 01.38274 02 10 08.43 +07 29 31.7 19.3 V 703 – Catalina Sky Survey MPS 143922
2005 10 01.39216 02 10 08.07 +07 29 26.1 21.2 V 703 – Catalina Sky Survey MPS 143922
2005 10 01.40155 02 10 07.64 +07 29 21.8 20.3 V 703 – Catalina Sky Survey MPS 143922
2005 10 01.41206 02 10 07.30 +07 29 16.1 20.3 V 691 – Steward Observatory, Kitt Peak-Spacewatch MPS 143922
2005 10 01.43447 02 10 06.46 +07 29 04.7 20.3 V 691 – Steward Observatory, Kitt Peak-Spacewatch MPS 143922
2005 10 01.45185 02 10 05.80 +07 28 55.9 20.1 V 691 – Steward Observatory, Kitt Peak-Spacewatch MPS 143922
2005 10 12.396717 02 02 33.618 +05 51 17.00 20.15 V 645 – Apache Point-Sloan Digital Sky Survey MPS 390095
2005 10 12.400189 02 02 33.457 +05 51 15.10 21.05   645 – Apache Point-Sloan Digital Sky Survey MPS 390095
